Simultaneous Nadir Overpasses (SNOs) Predictions

Prediction of SNOs between METOP-B and TERRA Satellite Orbit:

Table of predicted SNOs for the next 14.0 days since TLE Epoch: 5/19/2013
Index Date (METOP-B) Time (METOP-B) Lat,Lon (METOP-B) SZA (METOP-B ) Date (TERRA) Time (TERRA) Lat,Lon (TERRA) SZA (TERRA ) Distance(km) Time Diff (sec)
1 05/19/2013 19:32:39 -81.29, 113.57 115.68 05/19/2013 19:33:21 -81.29, 113.57 115.67 0.55 42
2 05/19/2013 20:23:19 81.30, -78.69 64.37 05/19/2013 20:22:47 81.30, -78.61 64.36 1.41 32
3 05/22/2013 15:07:02 -81.29,-179.75 116.22 05/22/2013 15:07:50 -81.29,-179.89 116.21 2.43 48
4 05/22/2013 15:57:42 81.30, -11.99 63.83 05/22/2013 15:57:16 81.30, -12.06 63.81 1.34 26
5 05/25/2013 10:41:26 -81.29,-113.91 116.82 05/25/2013 10:42:28 -81.28,-113.78 116.77 2.33 62
6 05/25/2013 11:32:05 81.30, 54.25 63.29 05/25/2013 11:31:54 81.29, 54.06 63.26 3.29 11
7 05/28/2013 07:06:29 81.29, 120.42 62.78 05/28/2013 07:06:41 81.30, 120.52 62.80 1.82 12
8 05/28/2013 07:57:08 -81.30, -71.69 117.16 05/28/2013 07:56:08 -81.31, -71.68 117.18 0.76 60
9 05/31/2013 02:40:53 81.29,-173.48 62.31 05/31/2013 02:41:38 81.29,-173.44 62.33 0.63 45




NCC Satellite Simultaneous Nadir Overpasses (SNOs) Prediction Service
